GFSWCAN_500_spd_000.txt.gz
Wind_Speed
42 40 41 40 38 37 37 36 37 36 34 33 29 36 37 32 32 33 33 34 34 35 33 37 39 39 38 39 40 39 40 40 40 40 40 35 40 35 40 37 39 37 39 36 38 36 34 42 45 41 41 39 38 36
41 40 41 40 39 38 37 35 35 35 33 32 31 29 29 36 33 32 33 33 34 35 35 34 35 39 40 39 39 40 41 40 41 42 42 43 40 41 39 35 37 37 39 35 37 33 40 45 44 43 42 42 40 38
36 38 37 40 40 37 37 37 36 36 35 33 32 31 30 28 31 33 34 33 33 34 35 35 34 34 37 39 40 41 42 41 41 42 43 45 45 42 43 42 43 39 39 41 42 44 45 46 45 45 44 43 43 41
35 34 38 36 37 39 36 36 35 35 36 35 33 32 32 31 31 31 32 33 33 34 33 33 35 35 34 34 37 40 41 41 39 41 42 44 46 45 47 47 45 46 44 43 45 46 45 46 45 46 47 47 45 44
34 34 33 36 37 38 38 36 36 36 34 34 33 31 31 31 32 32 31 30 30 32 33 33 33 34 35 36 35 34 36 39 40 40 41 42 43 44 46 45 46 46 48 45 46 47 46 46 48 49 49 48 47 45
34 33 36 34 36 36 35 36 37 38 37 35 34 32 31 31 30 32 33 33 30 29 30 30 30 31 32 33 34 35 34 34 35 37 39 40 40 41 44 43 45 46 44 46 47 46 47 48 48 49 47 47 47 45
31 32 32 36 34 33 34 35 37 39 39 38 37 35 34 33 31 30 30 30 31 31 32 31 29 28 30 30 31 32 33 33 34 34 34 35 38 40 41 40 42 40 42 45 47 47 48 49 47 45 44 44 43 42
26 31 32 32 35 34 34 34 36 37 38 38 38 36 35 33 32 30 29 29 28 30 31 31 30 28 28 29 30 30 30 31 32 33 33 34 36 36 38 32 34 39 42 41 41 42 43 41 43 43 42 41 41 40
17 20 27 30 31 33 32 33 31 33 36 37 37 37 35 35 33 32 31 30 29 28 28 30 28 26 28 29 30 30 31 31 31 32 33 34 35 37 33 35 36 37 38 39 39 39 40 41 41 41 41 39 38 38
12 13 17 24 29 31 34 32 32 30 29 30 33 35 34 33 32 31 31 32 31 31 29 28 27 25 23 23 25 28 30 31 32 32 33 34 34 35 35 37 39 40 41 41 41 41 41 41 41 41 39 38 37 36
15 14 12 17 21 27 30 33 33 31 30 30 30 30 31 32 31 31 31 31 31 31 31 29 27 24 22 20 20 22 25 27 30 33 31 33 33 35 35 39 41 43 44 44 44 43 42 43 43 43 41 41 40 38
15 16 15 16 19 22 25 27 27 28 29 30 30 29 30 30 31 32 31 30 30 31 31 31 28 24 22 20 20 21 21 23 25 24 26 27 33 31 34 38 42 44 45 46 47 46 44 42 40 40 38 38 36 36
12 12 15 17 17 23 24 25 25 25 26 26 26 26 26 26 28 30 31 29 29 28 29 30 29 27 23 22 21 21 21 21 21 21 22 26 30 35 39 41 44 46 46 47 46 45 42 40 38 35 34 35 36 39
10 15 16 16 17 18 21 24 25 24 24 24 22 21 22 24 23 23 24 27 28 28 25 26 29 28 25 23 22 21 21 19 21 24 30 36 38 41 45 48 51 52 53 50 45 43 41 41 40 39 37 38 38 36
7 11 16 19 18 18 18 19 19 20 21 21 22 22 21 19 18 19 21 23 25 29 27 24 25 27 26 23 20 17 17 22 26 32 36 36 31 32 36 40 40 42 42 41 39 32 33 34 34 35 36 37 35 33
19 19 22 21 19 21 22 22 20 20 19 20 20 20 20 19 20 18 20 25 26 28 27 23 25 26 24 20 15 18 20 25 25 21 22 24 22 25 26 28 34 30 25 22 26 25 25 26 31 28 24 20 17 18
26 24 21 19 20 23 23 21 21 19 19 19 18 19 20 19 21 20 20 27 29 28 27 23 25 23 19 18 14 14 15 16 19 17 17 19 16 9 6 1 6 12 10 11 13 16 15 14 13 15 15 16 19 19
32 30 25 23 22 24 24 24 22 19 19 18 17 17 20 20 18 17 20 26 26 26 26 24 23 19 14 13 13 12 12 10 8 10 10 4 2 4 8 11 9 13 15 9 10 9 7 9 11 8 13 12 13 15
28 29 31 33 34 30 26 26 24 22 21 21 22 24 24 23 23 25 27 27 26 24 22 19 17 15 13 7 9 5 5 3 2 7 4 10 6 10 8 13 5 9 7 5 5 4 5 8 7 9 11 13 16 18
43 41 37 35 32 33 34 34 34 33 33 33 34 34 34 35 34 31 28 24 20 18 19 19 17 20 17 9 4 1 1 1 1 5 3 6 6 6 8 7 5 3 0 1 4 7 9 11 11 12 15 16 18 19
34 34 36 36 36 34 34 34 37 37 38 38 39 37 35 34 31 27 24 22 21 20 19 19 18 15 10 7 4 2 2 2 3 3 2 4 4 5 6 5 3 3 5 7 8 9 10 11 13 15 16 18 18 18
31 32 29 26 25 28 28 32 33 32 34 37 40 41 38 34 32 29 23 17 19 16 16 14 12 9 6 2 4 3 2 3 2 1 3 4 4 4 4 5 6 7 8 9 11 12 12 12 13 14 14 15 16 17
30 36 36 33 34 35 39 43 37 34 30 29 27 26 28 34 35 33 24 20 19 17 13 11 11 11 11 9 6 5 3 2 2 2 3 4 5 6 8 8 8 9 9 9 10 11 12 14 15 16 15 15 15 15
39 36 32 26 23 25 30 25 25 27 24 24 30 38 31 31 37 30 20 19 19 16 15 13 11 10 9 8 7 6 5 5 4 5 6 7 8 9 9 10 10 10 11 11 12 13 14 15 16 15 16 16 15 14
34 35 32 31 32 30 24 23 25 26 25 24 19 17 21 21 16 18 21 19 15 13 9 7 6 5 6 6 6 6 6 5 5 6 7 8 10 12 12 12 13 14 15 16 17 16 16 16 18 19 19 17 16 16
30 31 30 28 26 23 22 23 24 22 21 18 19 18 18 17 15 15 16 13 10 7 6 7 6 6 7 7 7 7 7 6 6 7 7 8 11 14 16 18 18 17 17 16 17 18 19 20 21 22 21 20 21 24
27 26 25 25 24 24 24 22 21 19 17 15 16 18 16 13 12 12 11 11 9 9 8 7 7 6 6 7 7 7 7 7 8 9 11 14 16 17 16 17 18 20 21 21 22 22 23 24 25 26 27 29 31 33
25 25 23 23 21 20 19 17 15 14 14 14 14 14 12 11 12 12 11 10 9 9 9 9 9 9 10 11 11 11 11 11 13 14 15 16 17 19 20 21 22 23 25 26 27 28 29 31 32 34 35 36 38 38
24 25 23 23 22 20 19 17 16 17 17 19 17 14 13 14 14 15 14 13 12 10 9 9 9 10 10 11 12 12 12 12 14 17 19 21 23 25 26 28 29 31 32 34 35 36 37 38 39 40 42 43 44 44
21 24 23 22 19 16 16 16 17 19 19 17 15 14 14 14 13 13 11 10 9 10 10 11 11 11 11 12 13 14 15 17 19 21 23 26 27 29 31 32 34 34 36 37 38 40 41 43 45 46 46 46 45 46
19 21 17 14 12 13 15 15 16 17 17 16 15 14 12 11 10 9 9 10 10 9 9 10 12 14 16 17 19 21 24 25 26 26 26 28 30 31 34 35 38 40 41 43 44 45 45 46 47 46 45 46 46 49
17 16 14 13 13 14 14 14 14 13 13 12 11 11 10 10 10 9 8 9 10 12 13 15 16 18 21 24 25 25 25 26 26 28 29 32 34 36 38 39 41 43 45 47 49 49 47 45 46 47 49 49 50 51
11 12 14 14 13 13 12 11 9 10 11 11 11 12 12 11 11 11 12 12 13 15 17 20 23 25 26 27 27 28 28 29 31 34 36 39 40 41 43 46 48 49 49 49 50 50 49 49 48 48 47 47 48 48

GFSWCAN_500_spd_006.txt.gz
Wind_Speed
50 49 46 42 40 39 37 37 37 35 33 34 36 38 39 39 35 39 40 40 37 35 35 37 41 41 39 44 46 48 41 35 47 55 52 51 28 31 33 39 46 54 49 53 45 36 36 36 42 45 46 33 16 33
48 46 43 40 37 34 34 34 34 34 34 33 34 35 37 37 35 29 40 42 37 37 33 32 45 38 39 41 42 43 38 37 43 53 56 51 44 31 36 52 38 41 41 48 30 36 48 47 49 53 37 33 39 42
45 41 36 34 32 30 31 31 30 34 33 33 33 34 35 35 35 33 27 44 37 35 34 33 31 41 38 38 41 39 45 40 39 39 46 57 51 50 44 29 40 48 53 50 48 53 45 19 44 51 53 50 51 50
39 36 35 34 31 30 30 29 29 32 29 33 32 32 33 33 33 29 22 45 36 34 34 34 33 31 34 35 38 40 40 36 38 40 40 44 49 55 46 51 38 42 46 44 44 45 42 52 38 49 50 51 51 52
30 34 33 32 30 29 28 27 27 30 27 33 31 30 31 31 31 28 21 45 34 32 34 33 32 32 31 26 32 38 35 36 39 41 42 43 45 48 54 57 45 27 39 16 33 33 44 33 39 45 46 44 49 51
22 23 27 26 25 25 26 26 25 27 23 31 29 29 29 30 29 28 24 39 32 28 30 29 33 32 33 32 33 25 34 37 38 35 41 45 47 47 46 50 52 36 56 57 48 47 46 49 46 40 40 46 50 52
18 18 18 19 20 22 23 25 23 25 24 29 28 27 28 28 27 27 24 20 35 25 26 29 26 30 30 34 31 28 29 25 28 31 35 40 40 39 46 49 50 58 57 54 53 52 50 47 48 50 49 48 47 49
19 18 16 16 17 19 22 24 22 21 22 25 27 26 27 28 27 26 27 22 21 29 23 25 27 23 27 29 30 32 32 29 26 25 25 24 26 30 37 42 41 48 49 48 46 48 51 48 46 46 46 48 48 48
13 15 16 17 18 19 21 23 24 22 22 24 27 27 27 26 26 25 25 25 25 26 22 26 26 26 25 26 26 27 29 29 31 31 32 30 31 31 32 34 35 37 41 43 43 42 44 46 47 46 46 47 47 46
5 6 6 9 12 17 21 23 24 23 24 25 27 27 26 26 25 25 24 24 25 26 25 25 25 25 26 25 25 25 25 26 25 27 29 28 28 27 27 31 38 38 38 39 39 42 43 44 44 44 44 44 45 46
9 8 6 5 6 12 20 22 23 25 24 26 24 26 26 27 26 25 24 23 22 23 25 25 25 23 23 25 27 27 26 25 21 24 25 22 25 30 32 34 32 29 34 38 39 40 41 43 44 45 45 46 46 46
11 10 9 6 6 11 19 21 22 25 26 22 25 20 24 25 25 25 24 23 22 23 23 23 24 25 23 22 19 20 23 20 21 27 20 20 27 27 28 26 26 29 32 35 38 41 42 45 46 47 48 48 48 47
10 10 12 9 7 12 20 21 21 23 25 21 26 26 22 26 25 24 23 22 23 23 23 22 21 19 20 22 20 18 18 18 20 17 15 22 22 18 18 20 24 28 32 35 37 40 44 46 48 49 50 48 47 46
10 12 13 12 11 13 22 25 26 25 26 27 24 22 21 24 24 23 22 20 26 25 25 25 24 23 22 20 22 21 21 17 15 15 21 18 15 18 21 23 27 30 34 39 44 48 51 55 56 53 52 50 47 46
15 11 13 13 13 16 20 26 24 25 26 25 21 17 19 23 25 25 27 26 24 22 22 23 23 22 23 22 21 22 18 18 18 21 17 14 18 20 22 28 30 29 28 33 35 37 40 44 47 46 44 39 37 44
17 13 12 15 16 19 21 24 22 24 24 22 20 17 19 20 20 21 20 20 22 23 22 21 21 22 23 23 21 18 18 20 16 16 17 17 18 25 24 24 24 21 23 19 16 14 19 12 11 15 18 20 14 35
23 20 17 17 20 22 24 23 21 22 24 23 22 17 18 19 17 21 21 22 23 23 21 21 21 22 22 22 21 22 21 18 16 15 16 19 20 21 22 21 17 17 22 15 8 8 11 14 15 11 9 10 12 17
23 22 23 23 23 22 20 18 16 21 21 21 16 17 21 17 20 19 19 19 21 22 23 17 20 21 21 22 23 21 17 15 15 17 19 19 19 15 14 10 9 10 7 6 9 9 9 11 9 8 9 7 11 14
26 26 25 25 22 20 18 22 23 23 21 20 18 20 19 19 19 18 17 19 20 22 22 22 22 21 19 19 16 15 12 12 16 16 16 12 9 9 6 11 12 10 7 8 10 11 12 11 11 12 12 13 13 13
23 22 21 21 21 21 23 23 20 18 16 13 19 20 21 20 19 19 18 17 17 13 15 15 15 12 11 10 10 11 14 13 11 8 6 7 7 4 12 6 8 8 9 10 11 13 13 12 13 13 12 13 13 14
35 32 29 24 22 21 19 15 16 16 17 19 19 18 18 17 17 19 19 16 15 18 17 19 18 17 13 12 10 10 9 8 6 4 4 3 8 6 3 6 8 10 12 14 14 14 14 13 13 13 15 18 19 16
40 39 37 37 37 34 28 24 20 22 22 21 21 18 18 21 23 23 23 24 25 24 23 22 18 19 16 11 8 7 6 4 4 2 1 1 2 4 5 7 9 11 11 12 13 13 13 14 16 18 17 18 22 23
36 40 38 38 38 37 36 36 34 34 33 33 31 30 28 27 25 21 19 22 21 19 18 18 14 10 10 7 3 5 6 4 2 2 1 2 2 3 4 6 9 12 15 15 16 16 17 18 19 21 22 23 23 23
29 20 35 40 37 33 35 32 28 25 25 23 20 23 25 31 27 23 26 27 23 18 16 15 12 6 5 4 4 4 3 2 1 1 2 1 3 5 7 9 11 12 13 13 14 15 16 17 18 19 20 21 22 24
41 46 39 33 34 33 38 44 40 38 38 36 30 25 26 23 21 20 17 14 14 12 10 7 7 8 5 5 4 3 3 1 1 3 5 6 7 10 11 11 12 13 15 16 17 18 20 21 22 24 25 27 28 29
30 28 23 30 24 25 24 26 24 20 19 22 22 21 19 19 17 15 13 13 12 11 9 7 7 5 5 4 4 2 3 5 5 6 7 10 11 13 15 17 18 19 21 22 22 23 24 26 27 28 29 30 31 31
20 20 22 21 21 19 18 18 18 18 18 17 17 14 13 11 10 13 13 12 11 10 8 6 6 5 4 4 5 6 6 7 9 10 11 14 17 19 20 21 22 22 24 26 28 29 30 31 32 33 34 35 37 38
17 17 17 16 16 16 15 15 13 12 11 11 11 12 12 9 10 11 11 10 9 9 7 6 6 5 5 6 7 8 9 12 13 15 17 19 20 22 22 23 25 27 29 30 32 33 34 35 35 35 37 39 41 42
20 18 16 16 16 14 13 12 11 10 12 14 14 14 14 14 13 12 10 8 7 7 6 6 6 7 8 9 10 11 12 13 14 17 19 21 23 24 26 28 30 32 34 36 37 38 39 40 42 43 45 47 48 49
17 17 16 17 16 15 14 13 12 13 13 13 12 11 10 9 9 9 8 7 6 5 6 7 8 10 12 12 14 17 19 18 18 20 21 24 27 30 32 34 36 37 38 38 40 42 43 45 46 48 52 52 52 54
18 15 14 13 13 13 13 12 12 12 11 11 11 10 10 9 8 8 8 8 8 9 10 11 12 14 16 18 20 19 19 22 24 26 29 31 33 34 34 35 37 38 40 41 43 45 47 49 51 53 56 56 56 58
13 10 12 11 8 9 10 11 10 10 10 10 8 8 8 8 8 8 8 11 13 14 15 16 18 19 20 22 23 24 26 27 29 32 33 35 37 39 40 41 41 43 45 47 50 52 54 55 56 58 60 60 59 60
12 10 8 7 7 7 6 8 9 9 9 9 9 10 10 9 9 11 12 13 15 17 19 21 22 23 24 25 27 29 31 33 36 38 39 38 39 42 43 44 46 47 49 52 55 57 58 59 61 63 64 63 63 64

GFSWCAN_500_spd_009.txt.gz
Wind_Speed
56 51 45 41 43 43 41 37 35 33 33 33 34 34 33 35 35 33 32 37 39 39 42 42 43 50 49 46 45 49 49 48 40 39 41 47 43 43 24 31 18 22 38 54 51 45 42 50 33 39 41 46 42 46
51 45 41 39 37 37 34 34 33 31 29 29 31 32 32 34 36 35 34 35 37 39 41 42 40 45 53 41 49 48 51 46 39 44 48 47 45 39 34 38 30 51 43 33 35 34 45 30 31 44 54 62 60 54
41 37 34 33 32 31 29 28 28 28 25 25 29 32 31 33 35 37 34 32 37 37 43 42 39 44 41 50 44 49 48 42 38 36 44 51 54 48 48 50 39 41 24 35 32 35 39 36 46 44 48 55 65 47
35 31 28 27 26 27 26 24 25 25 23 25 29 29 30 31 31 32 35 31 21 39 42 43 36 34 30 50 42 46 43 40 37 35 37 43 51 55 53 30 62 52 51 47 50 45 55 55 49 45 48 40 49 34
26 18 18 19 19 22 21 22 23 23 22 22 27 28 30 30 30 30 30 27 28 24 41 41 33 31 31 44 41 40 38 36 38 39 38 39 42 48 58 61 57 52 44 41 52 45 49 47 42 47 52 47 57 33
19 15 14 14 14 16 19 20 21 21 21 20 23 28 29 28 29 29 26 25 21 32 39 39 32 29 29 24 46 33 35 36 38 39 38 41 43 44 45 57 62 61 64 59 51 55 29 28 30 38 31 26 25 33
15 12 12 10 11 13 15 18 19 19 18 19 18 29 27 26 27 27 24 25 18 35 37 35 30 30 28 27 29 29 28 32 33 36 35 40 43 40 42 45 49 55 59 62 66 57 47 41 43 45 49 42 42 43
12 11 12 11 8 10 13 16 16 16 16 16 17 28 26 26 25 26 25 23 19 35 31 29 25 24 28 29 25 34 29 24 30 31 32 34 35 37 38 42 45 50 53 55 56 51 48 47 53 52 50 48 45 42
9 8 10 11 10 9 11 14 15 17 16 17 19 28 25 25 25 25 24 22 16 34 27 26 31 25 28 29 28 23 25 31 25 22 25 25 31 25 30 33 33 43 48 51 53 45 40 42 46 50 51 48 48 47
7 4 3 3 6 10 13 14 15 17 17 17 24 28 25 24 24 24 23 25 18 20 31 25 23 27 29 27 27 29 28 27 27 28 25 26 29 29 31 34 42 54 50 44 43 43 42 41 41 41 43 45 46 47
8 5 3 1 2 8 15 17 17 19 18 16 23 26 25 25 25 24 23 23 20 18 25 23 26 23 26 26 28 29 32 31 30 30 31 33 34 33 33 31 30 27 30 36 41 43 45 45 45 45 45 45 46 47
9 6 4 3 2 6 16 19 19 20 18 18 19 25 26 25 24 23 23 22 23 23 19 22 21 23 20 24 22 25 25 25 30 29 28 32 30 30 26 25 26 27 29 34 37 38 38 39 41 43 44 46 47 48
5 7 6 4 4 11 18 20 20 21 19 20 22 17 21 26 24 23 20 20 21 22 21 20 20 18 20 20 20 21 21 23 26 25 25 24 25 24 23 21 23 26 28 29 31 33 36 39 43 46 48 52 51 53
9 10 9 7 11 20 23 22 21 22 19 18 23 19 22 23 22 22 23 22 22 21 21 22 22 24 21 21 21 20 23 21 19 21 23 21 19 19 23 25 24 24 26 27 30 30 34 39 40 44 47 51 56 55
13 13 12 12 17 24 24 24 23 23 22 18 21 20 18 21 19 19 21 22 21 19 18 17 17 19 20 20 23 22 19 18 20 18 14 15 18 19 20 21 21 21 23 26 25 24 27 24 22 25 23 21 22 25
17 16 15 16 21 24 28 28 26 29 28 22 18 20 17 20 20 22 21 21 15 18 19 19 18 19 20 20 19 18 19 20 16 17 15 15 14 16 18 19 21 21 22 22 19 19 20 14 13 14 15 15 12 12
17 17 17 20 23 25 25 24 24 23 21 19 18 16 18 20 17 22 19 18 20 19 18 18 18 21 20 19 17 18 15 13 15 13 11 11 13 16 20 20 20 20 14 15 13 12 16 14 12 13 12 10 9 10
24 24 24 24 25 23 22 23 22 21 20 20 17 14 19 14 15 17 17 17 19 18 19 18 16 17 16 17 17 17 16 15 12 10 10 13 17 19 19 19 17 10 5 4 6 9 12 13 15 15 14 14 14 14
28 27 25 23 21 21 20 22 21 21 24 22 23 16 19 12 13 16 17 20 21 19 16 15 16 18 18 15 15 15 16 13 10 10 14 17 18 18 12 12 10 9 8 15 13 11 10 11 12 13 13 11 12 13
25 24 25 25 24 24 24 23 22 20 12 11 14 13 14 16 17 16 16 16 19 19 17 18 15 10 11 10 11 10 11 12 11 12 12 12 10 7 8 9 9 13 14 10 11 14 16 16 16 13 11 10 12 14
31 29 28 26 24 24 23 21 17 15 13 12 14 13 13 13 13 13 14 15 14 12 11 11 12 12 13 12 12 12 12 10 11 8 8 6 11 9 5 4 6 8 11 14 17 18 19 17 16 15 16 16 17 15
38 38 35 30 25 21 18 17 16 15 16 17 17 15 14 13 13 14 15 16 16 18 19 20 17 14 10 9 7 7 8 8 8 8 4 2 2 3 5 7 9 11 13 14 16 16 17 17 17 19 19 20 19 20
41 38 38 38 36 35 32 31 27 26 24 23 22 21 19 18 17 15 13 13 13 15 16 14 11 9 10 9 3 4 6 7 5 4 5 4 4 5 6 8 11 13 15 17 18 19 19 19 19 20 21 21 22 23
48 46 44 42 38 32 31 29 29 28 27 27 29 28 24 20 18 18 17 15 14 14 15 14 11 8 4 2 3 6 5 3 3 4 5 5 5 7 8 11 13 13 13 13 14 16 18 19 21 23 24 24 25 25
37 36 39 38 38 37 35 36 36 37 36 33 31 26 24 22 22 19 13 13 12 9 7 7 10 10 9 6 4 3 3 1 3 4 5 7 8 10 12 11 13 16 18 19 20 20 21 22 23 25 27 28 29 30
31 29 24 24 32 27 24 24 24 24 22 22 22 20 18 19 16 16 14 13 13 10 10 10 8 6 6 6 4 4 4 5 5 6 9 11 13 14 15 18 19 20 21 23 24 24 26 28 30 31 33 35 37 38
24 21 21 19 19 18 17 17 16 16 16 15 14 14 15 12 14 14 13 12 10 11 8 7 9 7 5 5 5 5 7 8 8 11 13 16 19 20 20 21 21 21 23 27 30 32 33 34 35 37 39 40 41 42
21 18 18 18 17 16 15 15 14 12 12 13 13 15 14 11 12 13 13 11 10 9 7 7 4 5 6 7 9 10 12 14 16 17 19 20 22 23 23 26 29 31 33 35 36 37 38 39 40 40 41 42 44 46
20 20 17 16 15 15 16 14 13 14 16 17 16 13 13 13 13 12 12 10 10 8 7 7 8 9 10 12 13 14 16 16 15 15 17 19 21 24 27 29 32 34 35 36 37 39 40 40 42 44 46 49 51 51
19 19 19 18 17 16 15 14 14 14 13 12 12 11 10 10 9 7 6 7 8 8 9 10 10 12 14 15 17 19 20 20 20 21 23 26 29 31 32 33 34 35 36 37 39 40 41 42 44 47 51 55 56 56
12 10 11 13 14 14 14 13 13 11 11 12 11 8 7 7 7 7 8 9 10 11 13 15 17 18 20 21 21 22 23 25 27 28 30 32 34 36 37 38 39 40 41 43 45 46 48 50 52 54 56 59 59 59
13 12 13 13 13 12 9 10 11 11 12 11 9 9 9 6 7 7 10 12 16 19 19 20 21 22 24 26 27 29 31 32 32 32 32 35 37 40 41 43 44 45 47 49 51 52 54 57 59 59 60 61 63 65
12 13 12 8 7 8 7 6 7 9 11 10 9 15 13 11 12 14 16 17 17 20 25 27 29 30 30 31 32 32 34 36 38 39 42 44 45 46 46 47 48 49 51 53 55 56 59 61 63 66 67 67 66 67

GFSWCAN_500_spd_015.txt.gz
Wind_Speed
48 45 42 39 37 36 36 35 34 34 33 33 31 30 29 29 30 30 32 31 32 34 34 38 48 44 44 48 39 39 37 46 43 42 43 47 49 41 39 51 45 45 43 40 41 46 47 46 42 44 44 39 37 40
35 36 36 34 34 33 32 32 31 27 26 25 24 24 25 25 28 28 29 29 31 32 32 36 44 46 43 49 52 35 42 49 42 43 42 44 46 57 42 47 48 48 49 42 39 45 44 44 44 39 38 42 44 42
32 32 30 29 27 27 25 21 19 20 18 19 21 22 21 22 23 26 28 26 26 25 29 31 38 41 41 47 54 43 37 52 44 44 43 43 43 47 49 44 38 53 47 40 38 43 49 46 46 48 53 54 52 51
30 30 27 26 23 19 16 16 16 12 13 16 17 19 19 19 22 25 28 23 22 23 25 26 29 32 35 40 45 41 35 42 41 39 46 47 44 42 39 38 50 44 50 41 37 45 48 51 48 47 45 46 46 44
28 27 26 21 16 13 13 13 10 10 12 13 16 18 18 18 22 23 25 24 26 25 22 22 27 30 32 38 41 40 38 32 30 40 18 23 51 43 46 45 34 36 42 27 36 44 41 53 56 56 52 55 48 49
25 22 21 15 12 10 10 8 6 8 10 12 14 15 18 19 21 23 25 29 31 29 23 26 26 27 28 32 35 32 27 22 30 24 20 19 16 20 19 23 33 35 39 36 27 38 43 24 24 31 30 53 46 34
21 17 16 11 8 8 6 5 6 8 10 12 11 14 14 23 17 26 27 30 29 22 19 20 26 23 22 25 28 27 27 24 29 26 25 27 27 23 19 22 23 25 34 33 34 31 31 32 21 19 18 22 26 26
18 13 12 9 5 4 2 4 7 9 10 11 12 13 19 16 23 26 28 30 30 24 18 19 26 25 23 22 23 23 25 24 25 32 32 35 33 32 32 29 30 28 27 27 27 25 23 22 23 25 30 32 32 35
14 9 8 6 3 1 2 5 8 10 11 10 11 16 12 21 25 27 27 25 27 23 21 19 15 26 26 23 23 27 24 20 24 32 35 36 35 33 34 32 28 25 23 22 23 24 26 29 31 33 34 31 29 30
9 4 4 5 2 4 6 9 10 12 11 12 13 14 21 23 25 26 24 22 20 22 23 24 18 22 22 24 27 27 26 22 25 29 28 31 32 34 34 32 30 26 23 24 25 27 28 29 28 29 31 31 30 32
2 2 3 5 6 8 10 12 14 14 13 14 16 23 23 23 24 24 24 25 22 26 24 23 21 22 22 21 20 25 30 24 24 28 24 26 32 32 31 28 23 23 23 24 27 29 30 29 29 31 31 29 33 36
9 7 6 7 10 13 14 16 16 15 17 19 24 24 23 23 23 23 23 22 18 31 25 25 22 20 21 20 18 20 27 26 26 26 26 26 28 28 24 19 18 20 22 25 28 29 29 29 32 32 29 30 31 32
12 10 8 10 17 18 19 19 23 23 20 25 25 25 25 24 24 23 22 17 17 29 23 28 26 22 22 21 18 13 19 27 29 29 25 23 22 21 20 20 20 20 22 24 23 22 25 27 28 29 30 31 33 34
12 10 10 18 21 23 24 29 22 18 18 25 24 24 24 23 20 18 14 13 15 27 24 26 28 21 23 24 26 18 12 14 18 23 26 25 24 24 25 25 25 23 23 21 22 24 24 25 27 28 30 31 32 31
16 17 20 22 25 28 32 27 20 17 21 24 25 25 25 23 18 15 11 15 19 24 22 23 30 22 24 25 26 28 22 21 13 9 8 9 11 12 15 17 20 20 20 21 23 24 26 26 25 25 26 22 22 23
22 23 24 26 27 27 28 25 20 22 22 25 26 25 25 21 13 12 16 16 15 18 22 21 25 21 22 22 23 24 21 18 17 16 15 15 16 16 16 16 16 17 18 19 19 19 20 20 21 19 19 20 20 21
26 25 27 27 27 27 26 24 24 24 24 24 24 21 18 16 12 14 16 17 15 18 19 18 16 19 19 20 19 18 18 17 16 15 14 12 11 11 12 14 14 15 16 16 16 18 19 21 19 20 19 20 20 23
30 26 26 29 29 30 27 24 20 25 28 21 18 15 16 15 12 13 14 14 14 16 17 18 18 15 14 13 14 16 16 14 13 11 11 10 11 12 12 13 14 15 15 16 17 17 17 15 14 15 17 18 19 21
28 25 23 24 25 25 25 26 20 18 18 17 15 14 14 14 16 13 13 13 13 13 14 14 14 13 13 14 13 13 13 12 11 11 11 11 10 11 13 14 16 17 18 18 18 18 15 17 18 17 19 20 22 24
24 23 21 19 19 19 20 21 22 19 16 15 13 11 14 12 10 11 12 12 12 12 12 12 12 12 10 10 10 11 11 11 10 11 11 12 13 13 13 14 15 16 16 15 17 19 18 17 16 19 22 23 24 24
22 24 25 25 23 20 16 13 13 15 16 16 16 13 13 13 11 10 12 13 12 11 9 7 6 5 5 6 5 7 8 9 12 13 11 8 8 9 12 13 12 11 12 13 13 14 17 18 21 24 24 23 24 25
19 15 15 17 18 19 20 21 21 20 20 20 18 15 14 13 13 12 12 10 8 7 8 8 7 6 7 7 6 6 8 9 8 7 7 9 10 11 9 10 12 13 11 12 15 17 19 21 22 23 24 24 24 24
35 32 27 23 20 18 17 17 18 19 18 19 20 19 18 16 14 13 12 10 8 10 9 7 6 8 8 8 6 5 5 6 7 8 8 8 9 9 8 8 9 12 13 15 18 19 20 21 21 22 23 25 25 25
37 37 35 33 32 30 30 27 24 23 24 23 23 25 23 21 18 16 14 12 11 9 7 6 4 2 7 3 2 3 2 2 2 4 7 9 9 11 11 12 14 16 19 21 21 21 24 25 26 27 28 28 29 31
26 27 33 33 31 31 30 29 26 24 21 22 20 22 25 22 19 17 14 11 9 7 12 14 13 11 7 6 5 3 1 1 3 6 8 11 12 14 16 18 21 23 24 23 25 27 27 27 28 29 31 32 34 36
21 22 22 23 23 23 24 24 23 23 22 21 22 22 22 19 18 22 19 16 16 14 12 11 12 9 8 7 6 6 7 8 9 10 12 14 17 19 21 22 24 25 26 27 28 28 29 31 33 34 36 37 39 41
20 21 20 20 20 21 20 20 21 22 21 20 19 19 17 14 16 15 14 15 13 11 9 8 9 9 8 7 7 8 9 12 15 16 16 17 19 21 22 23 24 26 28 30 33 35 37 38 39 40 41 42 43 44
21 20 22 22 20 21 22 21 20 20 19 18 18 15 13 13 14 12 11 10 9 8 7 7 7 8 9 11 13 15 16 17 19 22 22 23 24 26 27 30 32 35 36 38 40 42 44 45 46 47 48 49 50 50
21 20 22 20 16 16 17 17 16 16 15 16 15 14 12 10 8 8 7 7 6 5 6 8 11 14 16 18 20 23 24 25 26 28 30 31 34 35 36 38 39 41 41 42 45 47 48 49 51 53 54 55 55 56
20 17 15 17 16 16 15 14 15 14 14 14 14 12 10 9 7 6 5 7 9 12 15 17 19 21 22 23 25 27 30 32 32 32 33 34 35 36 37 40 42 43 45 46 48 50 52 53 54 56 57 58 58 59
12 15 11 11 11 10 10 11 10 8 8 11 9 9 8 7 8 11 13 13 13 15 16 19 21 24 27 30 32 33 35 35 37 37 37 37 38 40 42 45 47 48 49 50 52 54 55 56 58 59 60 61 62 63
11 13 12 12 12 12 12 11 14 11 10 11 12 24 25 20 17 15 13 11 12 16 17 24 29 29 31 33 35 36 37 37 37 39 41 43 46 48 49 49 51 52 53 55 56 57 57 59 60 62 63 64 66 67
9 9 10 11 10 13 11 12 14 16 14 13 15 15 20 13 16 12 17 17 17 21 34 39 40 40 39 39 40 41 42 44 46 48 49 51 52 52 54 55 55 56 57 57 59 60 62 63 64 65 66 66 67 66

GFSWCAN_500_spd_021.txt.gz
Wind_Speed
54 48 42 38 36 37 34 35 34 30 27 26 23 23 22 21 20 22 20 22 24 30 28 33 31 28 27 32 41 37 40 42 44 42 42 42 43 46 46 47 45 47 56 60 56 45 35 37 36 31 31 38 43 43
48 41 41 35 32 33 32 31 28 25 21 18 16 15 13 14 15 16 16 17 19 22 23 28 27 27 28 37 40 39 41 40 43 42 41 40 42 45 46 42 41 43 47 46 57 49 46 38 34 30 30 30 35 39
37 33 29 27 28 28 25 24 22 19 18 15 13 11 10 10 12 12 14 14 16 17 22 24 27 29 24 31 36 37 42 41 41 42 40 38 41 44 41 40 39 37 32 37 33 40 43 40 35 31 32 35 38 42
28 25 21 21 24 22 20 18 17 17 13 9 8 8 6 7 7 6 6 10 10 16 20 22 24 23 25 28 31 36 46 44 40 42 35 38 39 37 33 34 34 32 32 30 24 30 40 39 35 37 33 35 37 38
22 14 12 19 19 17 15 15 14 11 8 5 4 3 3 4 5 7 10 8 17 20 20 21 20 23 22 28 35 33 42 45 34 45 35 37 36 29 31 24 26 31 29 23 23 40 17 29 35 38 38 38 38 39
17 13 13 17 14 14 12 12 10 7 6 3 1 5 6 8 9 9 8 22 21 19 22 22 22 24 22 25 30 35 44 49 43 19 38 31 33 30 31 29 23 26 26 23 22 23 28 26 33 29 39 40 39 42
13 14 16 13 14 10 11 9 8 8 6 6 6 9 8 10 13 9 23 24 23 25 25 26 23 22 19 29 27 22 23 27 19 20 37 34 34 34 28 28 28 20 25 24 23 22 23 29 30 44 33 34 38 43
20 17 15 15 11 10 9 9 9 9 9 8 8 10 11 16 11 26 26 23 27 26 25 20 21 22 19 27 25 30 28 16 27 17 23 27 25 33 28 23 22 25 22 25 24 24 23 24 31 32 27 29 36 38
20 20 18 14 12 11 11 11 11 12 11 9 10 14 18 13 23 27 26 27 26 27 21 21 21 22 22 25 33 35 21 24 25 23 24 29 28 25 22 31 27 29 29 20 23 26 26 28 28 27 22 18 14 11
22 21 17 15 14 13 13 13 13 13 14 16 18 15 15 21 25 25 22 21 15 13 9 24 21 23 22 19 20 20 21 18 15 30 35 27 33 29 23 26 35 39 37 30 35 26 18 11 12 13 15 17 19 22
22 19 18 17 16 15 15 15 16 17 15 18 20 21 23 24 23 21 16 14 13 22 18 29 24 26 27 28 27 26 23 22 20 22 22 26 19 15 23 17 22 18 14 10 9 9 11 14 17 18 19 20 19 19
23 22 21 20 19 17 16 16 19 21 23 24 25 23 21 19 18 17 17 13 16 26 22 25 28 29 29 29 30 29 23 21 24 26 30 26 28 18 20 20 16 15 15 15 15 14 13 14 14 15 17 19 20 20
26 25 25 25 21 21 22 25 26 25 25 24 24 22 20 18 17 18 17 12 19 23 23 19 20 23 26 25 23 21 18 17 18 22 28 34 23 15 13 15 16 17 17 17 17 15 15 15 15 16 17 21 21 21
27 29 29 26 27 26 27 28 26 26 26 28 26 19 20 24 19 18 18 15 17 13 21 22 17 23 16 19 14 15 16 17 17 16 19 25 23 18 15 17 19 19 19 18 17 17 18 19 19 19 21 22 20 18
26 29 28 28 27 28 27 25 24 26 24 19 27 18 21 17 14 13 22 18 19 14 16 20 15 19 13 23 24 24 19 14 13 13 16 20 17 17 17 18 19 20 21 20 20 20 20 20 21 21 20 19 18 17
23 27 27 24 24 25 26 26 23 26 24 23 18 17 15 18 18 15 17 20 18 12 15 18 8 14 18 21 19 16 15 11 8 9 17 19 20 21 21 19 20 21 20 20 19 20 21 19 17 15 16 17 18 19
25 26 25 20 24 29 27 24 26 16 23 28 23 22 16 15 15 14 12 9 11 16 15 13 9 12 16 18 17 19 17 15 13 14 11 15 17 14 14 18 19 16 13 13 14 14 14 15 16 17 18 19 21 21
23 24 24 21 17 19 20 19 18 18 19 17 15 13 12 14 16 14 11 10 9 11 13 7 6 10 12 12 16 14 11 11 13 8 5 7 10 9 8 9 10 10 12 13 14 15 15 16 17 19 21 22 20 20
18 20 20 17 17 20 21 20 19 17 18 18 19 21 20 18 20 21 20 17 20 16 12 11 12 9 11 14 12 12 11 9 8 8 8 7 5 4 4 6 8 10 12 14 14 16 18 19 20 21 21 20 19 20
14 13 14 15 13 15 17 19 19 18 17 17 16 16 17 19 20 18 18 18 18 15 14 12 12 12 12 11 11 10 8 7 6 5 4 2 3 5 8 10 12 14 16 17 17 17 18 18 18 20 22 23 22 19
21 20 17 15 14 14 15 17 17 17 16 16 17 17 18 20 20 20 19 17 15 13 13 12 12 11 10 9 8 8 7 7 7 6 6 6 7 9 11 12 12 14 17 18 16 15 16 17 17 18 18 19 21 24
19 20 20 20 19 18 17 16 16 16 16 17 18 18 18 17 17 16 14 15 16 15 12 10 10 9 8 6 5 5 6 5 5 5 6 8 9 11 12 12 13 13 14 16 17 17 18 20 21 22 22 23 25 27
22 21 20 19 17 17 17 17 17 18 18 17 17 17 17 17 18 20 19 18 18 19 18 16 13 10 9 8 6 3 1 1 4 6 7 9 10 11 12 13 14 15 17 18 19 20 22 23 24 25 27 29 30 30
20 19 20 22 22 21 20 19 22 22 23 22 20 19 21 21 23 24 14 18 19 16 14 12 12 9 8 6 6 4 3 2 3 5 7 9 11 13 15 17 18 20 21 23 24 26 27 28 29 30 30 31 32 34
14 19 20 20 19 20 18 20 23 22 21 20 21 21 20 19 19 17 15 15 12 11 12 11 10 8 7 6 5 5 6 6 7 9 10 12 14 16 18 20 22 23 24 26 27 28 30 31 32 33 34 35 36 37
20 20 20 20 19 18 19 18 16 18 18 17 18 20 19 15 13 12 11 11 10 9 7 6 6 5 6 7 8 10 12 13 15 17 18 20 21 23 24 26 27 29 29 30 32 33 35 36 37 38 40 41 42 43
21 21 21 21 21 21 20 20 20 19 18 17 17 17 17 15 14 12 11 10 8 7 6 6 6 8 9 10 11 12 13 15 17 19 22 24 25 27 29 31 32 34 35 36 37 38 39 41 42 43 44 45 46 47
20 19 17 16 16 16 15 15 16 16 17 16 17 17 18 18 17 15 14 13 13 13 13 14 15 14 14 13 13 16 21 26 29 32 35 36 37 38 39 40 41 43 44 44 45 46 47 48 49 50 50 51 52 53
15 14 14 14 16 17 16 14 12 14 15 17 18 14 11 13 21 22 19 14 15 17 16 18 22 24 26 28 28 27 28 34 42 45 42 43 44 46 48 48 49 51 52 53 54 55 55 55 56 57 57 57 58 58
15 15 16 16 17 17 12 15 15 16 18 18 20 25 24 16 17 21 20 22 25 21 19 21 24 30 33 34 36 40 46 48 46 45 43 43 43 44 45 47 49 50 51 52 53 54 55 56 57 58 59 60 60 61
14 14 15 17 18 20 17 21 21 16 15 16 17 13 19 20 18 24 24 24 22 21 26 33 35 35 36 38 39 43 45 47 48 48 48 48 49 49 49 50 51 52 53 53 54 55 56 57 58 59 60 62 63 64
15 14 15 15 15 18 18 18 20 21 18 22 14 13 27 23 24 25 26 26 25 27 30 33 35 37 38 39 40 41 42 43 44 45 46 48 49 50 52 52 53 54 54 54 55 55 55 56 56 56 56 55 55 55
18 18 17 16 18 19 19 18 17 18 20 19 23 23 24 25 25 27 28 30 31 33 34 36 37 39 40 41 43 45 47 49 50 52 52 52 51 50 48 47 45 45 45 45 46 46 46 47 47 47 47 47 47 48

GFSWCAN_500_spd_024.txt.gz
Wind_Speed
76 65 43 29 27 25 22 20 24 25 24 23 20 19 19 18 19 18 17 17 17 17 18 22 24 26 26 28 31 31 35 40 46 40 42 40 37 35 33 40 50 53 54 52 44 47 42 48 42 38 34 30 30 29
54 38 28 24 20 15 15 19 20 20 18 17 16 15 14 14 12 12 13 14 15 16 16 20 19 24 25 25 22 31 30 41 45 48 39 42 39 36 44 30 47 49 46 43 51 47 53 49 47 43 40 32 29 28
37 32 24 20 13 15 17 17 15 14 15 14 12 11 8 8 5 7 7 9 10 10 14 18 19 22 23 20 23 23 28 38 42 46 44 38 36 44 43 28 42 49 50 48 44 50 53 51 52 47 33 33 31 30
31 27 20 19 19 17 16 12 14 14 11 9 6 4 3 2 1 3 5 6 8 9 15 23 24 24 22 20 24 31 35 40 39 39 41 40 38 39 42 47 40 46 42 43 44 41 34 34 40 43 37 34 35 35
31 26 24 21 18 16 13 14 12 9 8 6 4 4 4 4 3 8 6 4 8 14 18 20 24 23 24 27 34 34 38 44 39 31 40 42 39 34 36 34 37 36 38 34 40 33 29 28 26 30 42 38 35 39
30 26 23 21 17 15 15 13 11 9 7 6 8 8 9 8 8 4 6 12 18 17 19 18 18 20 22 31 38 34 43 38 38 29 41 36 41 34 37 33 31 30 31 31 28 29 28 29 37 33 46 41 36 37
31 28 22 17 16 15 15 14 14 12 12 11 11 10 10 11 10 14 17 19 19 20 19 19 21 16 15 27 31 27 44 42 26 31 35 27 33 31 34 28 24 27 29 30 32 29 24 18 27 41 47 41 41 41
28 23 20 18 17 17 16 15 15 13 12 12 12 14 17 24 18 13 18 20 23 23 24 21 13 14 14 27 22 21 33 28 39 38 24 32 23 36 29 27 28 26 23 29 28 32 27 22 40 31 31 42 41 38
25 24 20 19 19 18 17 16 14 13 13 13 17 14 19 15 17 20 22 16 17 18 27 30 16 14 21 23 28 25 26 28 21 24 14 28 26 27 27 26 26 25 26 17 32 38 28 24 37 28 19 22 38 33
26 24 22 22 22 21 19 20 20 20 20 19 15 18 18 17 19 19 18 11 19 20 14 14 13 12 25 27 22 28 25 28 20 18 19 28 30 30 28 27 27 26 23 20 21 29 24 31 34 24 23 21 20 22
27 26 25 23 22 21 20 19 18 18 18 21 20 18 17 17 15 14 13 16 20 28 15 13 14 11 22 20 25 23 25 27 17 17 19 25 26 23 29 25 36 31 27 26 20 28 29 33 16 31 27 20 14 15
26 25 24 26 26 26 26 25 25 25 25 23 20 17 16 14 13 15 21 22 24 21 14 16 15 19 25 26 23 17 20 21 18 14 27 28 22 21 22 28 28 33 35 32 27 20 20 14 16 18 19 18 17 17
27 25 27 27 28 27 27 20 22 26 26 24 21 17 14 16 15 13 12 16 16 11 15 18 16 18 23 23 18 17 14 8 11 18 28 27 21 15 16 15 17 17 16 15 13 11 11 14 16 17 18 18 18 19
27 26 27 26 26 25 24 25 25 24 24 23 28 24 19 17 12 12 15 19 23 14 11 15 17 16 15 14 13 11 7 13 8 12 15 27 27 17 16 16 16 16 17 16 16 15 17 18 17 16 16 16 18 21
27 26 26 28 28 28 31 32 27 26 21 22 21 17 16 15 11 13 15 14 23 23 24 17 19 15 15 10 10 11 13 10 12 13 17 21 19 16 15 16 15 15 14 15 14 16 17 15 16 17 17 17 19 20
24 29 27 24 27 27 33 31 30 24 22 21 26 23 23 17 16 14 14 13 13 14 18 12 13 15 15 15 13 14 11 12 10 7 12 13 15 13 12 12 13 13 14 15 15 16 15 15 18 19 21 22 21 21
24 18 21 24 21 20 22 25 20 16 16 21 19 19 20 19 18 14 10 10 10 9 12 12 14 18 17 15 13 11 11 8 10 12 11 12 10 9 11 13 14 15 16 17 18 19 20 21 23 22 22 22 22 22
18 20 21 23 23 20 19 19 20 24 24 20 18 18 18 13 13 13 10 7 5 7 6 6 13 14 14 13 18 12 16 17 10 11 12 13 11 9 10 9 10 13 15 17 17 17 17 17 20 21 21 21 22 23
14 13 15 18 20 19 19 17 19 19 21 23 22 24 24 23 18 20 18 13 11 9 12 18 16 14 12 11 13 15 13 10 8 8 7 6 6 5 5 8 10 12 14 14 15 15 15 19 21 21 22 22 24 26
17 15 15 15 18 19 17 17 17 18 19 21 20 20 20 19 21 20 20 18 19 20 19 17 18 17 15 15 14 14 12 10 10 9 7 6 7 8 10 9 10 12 14 15 15 17 19 21 22 23 25 25 24 27
21 19 17 16 16 17 17 17 18 19 19 19 19 19 18 19 21 19 17 13 15 14 15 15 15 14 13 12 11 10 9 8 7 7 8 9 8 11 11 11 11 11 13 15 17 18 20 22 22 22 23 22 23 24
23 21 19 17 17 15 16 17 17 18 18 19 19 18 18 19 19 19 19 18 15 14 12 11 10 8 7 5 4 3 4 5 5 7 8 9 11 13 12 13 13 15 16 16 15 16 18 20 21 21 22 22 25 26
22 22 22 21 20 20 19 17 16 16 18 18 20 21 22 23 22 20 19 21 23 21 15 13 10 8 7 6 5 4 3 4 5 6 8 10 11 14 16 16 17 18 19 19 20 20 21 22 23 25 26 27 29 31
21 18 19 22 24 25 24 22 21 21 21 20 20 20 19 16 20 19 16 15 13 10 7 7 9 9 8 7 6 4 3 3 4 6 8 10 12 15 17 19 20 21 23 24 24 25 26 27 28 29 30 31 32 33
18 22 24 26 23 21 22 24 24 25 26 23 20 18 15 15 15 13 14 13 11 10 9 10 10 9 9 8 7 6 7 8 10 11 14 16 18 20 22 24 26 27 29 31 31 32 33 34 35 36 37 38 38 40
19 23 24 24 23 22 22 21 21 21 21 19 18 18 18 16 14 13 12 11 11 11 11 10 10 10 10 11 11 12 13 13 15 18 20 22 25 28 30 32 34 36 35 36 37 38 39 41 42 42 43 44 45 45
18 20 20 19 18 17 16 17 18 17 15 14 13 13 13 10 9 8 7 9 10 11 12 12 12 12 14 16 18 19 20 21 22 24 26 29 33 38 40 40 40 42 43 43 43 44 45 45 46 47 48 48 48 49
14 15 15 16 15 14 13 13 15 15 16 18 20 19 13 16 13 14 17 17 16 17 21 20 18 20 21 21 23 27 32 34 36 38 41 44 46 48 48 49 50 50 51 51 51 51 51 51 52 53 55 55 55 55
11 12 13 15 18 9 14 12 14 14 15 16 14 14 12 9 11 15 21 18 18 17 18 19 23 25 29 36 38 38 37 38 39 40 41 42 43 45 46 46 46 46 46 48 49 50 52 55 56 57 57 58 60 61
13 13 14 15 13 13 15 14 16 16 17 15 14 8 13 18 14 21 23 22 23 23 24 26 27 30 34 36 38 40 40 41 42 43 44 45 46 47 48 49 50 51 52 53 54 55 56 56 57 58 59 60 61 62
16 15 15 15 14 14 13 12 14 17 17 17 18 16 19 20 23 24 26 27 28 29 31 32 32 34 36 38 39 41 43 44 45 46 47 48 50 50 51 52 52 51 51 50 50 51 51 51 52 52 53 53 53 54
17 18 18 17 18 18 18 16 18 20 21 23 23 24 24 25 27 29 31 32 34 35 36 37 38 40 41 42 43 44 44 44 45 45 44 43 43 42 41 40 40 40 41 41 41 42 42 43 44 45 46 47 48 48
19 18 18 19 19 19 20 19 20 22 23 25 26 27 27 28 30 32 34 35 37 39 40 41 42 43 43 42 40 38 36 35 34 35 35 35 35 35 35 35 36 36 37 37 38 38 38 38 38 38 39 39 39 39

GFSWCAN_500_spd_030.txt.gz
Wind_Speed
56 51 49 46 42 39 37 34 30 27 24 21 17 15 14 15 17 19 19 20 20 22 17 19 23 21 23 25 27 11 17 23 34 51 51 36 49 49 57 50 56 57 55 42 45 39 37 44 46 50 43 47 43 40
51 47 42 39 35 34 33 31 28 25 22 20 17 15 13 12 13 13 15 14 15 15 13 21 16 14 18 25 28 29 21 22 28 48 51 36 58 47 46 58 47 46 55 49 45 43 40 38 60 48 45 50 45 44
44 39 36 35 37 35 33 30 26 22 20 19 16 13 11 10 10 8 7 11 8 10 13 13 10 13 16 21 27 33 26 21 25 39 29 39 40 33 52 43 51 45 48 50 44 45 50 51 39 55 53 42 35 45
42 40 38 37 37 34 30 29 26 23 21 19 17 15 13 12 11 9 4 4 6 5 5 7 9 9 13 21 27 29 30 22 20 30 41 47 37 44 33 39 52 42 46 45 39 42 50 57 58 44 39 56 49 55
43 40 38 36 32 30 27 26 26 23 22 21 20 19 17 15 13 9 7 6 5 3 3 5 7 13 17 16 18 31 29 20 18 29 40 45 41 42 48 24 54 39 47 43 42 53 54 54 57 52 54 52 46 40
40 37 39 38 32 26 24 25 25 24 21 21 21 21 23 23 17 16 12 12 13 11 10 11 18 19 7 12 17 26 31 25 24 26 11 41 32 49 47 20 49 48 45 49 52 50 40 53 59 49 44 44 42 38
41 35 35 32 32 29 27 25 22 26 18 24 23 21 21 21 18 18 17 15 11 11 13 18 17 16 13 12 13 17 27 23 24 22 15 37 26 30 54 23 47 34 49 52 35 52 52 34 53 47 38 37 35 31
41 37 34 30 29 30 29 25 26 28 23 22 25 23 21 24 22 19 16 16 11 15 15 18 14 12 7 4 6 8 11 24 24 15 14 10 15 30 40 28 17 13 27 24 13 15 20 19 45 46 47 41 34 33
42 38 32 26 26 28 27 26 28 25 24 22 21 23 30 31 24 24 24 24 17 10 16 11 14 14 16 8 8 9 7 22 12 16 7 10 18 27 26 25 4 15 15 18 14 17 18 21 29 35 35 33 33 34
38 36 31 26 27 26 27 28 28 26 24 26 30 36 36 36 30 25 27 19 22 19 16 26 20 17 14 12 12 21 26 22 13 11 8 4 22 25 19 15 19 23 19 17 21 22 22 26 28 31 33 34 29 34
33 35 36 31 29 29 29 27 28 26 29 31 35 40 48 46 38 28 27 20 15 17 27 30 20 19 11 18 18 17 13 10 11 9 8 23 18 12 11 23 24 20 16 16 18 16 17 20 21 24 27 31 26 30
31 32 33 30 31 29 27 26 25 24 27 28 27 31 38 38 39 35 27 25 23 15 21 24 20 14 22 21 17 12 15 16 10 8 11 10 13 19 21 20 19 16 21 11 17 17 17 14 20 22 26 26 23 19
24 27 27 30 29 26 23 21 20 21 22 25 22 26 32 34 46 33 24 22 17 17 14 25 27 16 11 17 22 25 24 17 15 17 28 30 33 36 27 26 25 16 14 16 16 18 11 6 6 14 18 28 27 26
22 20 23 24 28 22 17 19 14 17 20 15 19 26 29 19 30 39 16 22 24 21 21 25 20 27 25 23 26 24 19 25 33 37 33 28 25 23 22 27 21 16 15 15 17 17 13 12 14 15 18 23 35 32
23 22 22 25 25 25 20 16 12 14 15 12 16 22 26 30 31 24 18 20 30 13 17 24 24 26 24 21 29 30 38 37 32 32 22 19 17 13 10 11 11 9 12 14 15 11 8 8 11 17 21 19 18 15
22 23 24 24 23 24 22 17 18 17 11 12 14 18 19 19 20 22 21 20 20 22 21 22 28 32 32 29 24 27 28 30 31 22 17 16 14 13 9 4 7 7 5 5 4 4 7 10 11 8 7 8 8 10
19 23 24 23 22 21 23 18 16 13 13 13 15 14 16 15 15 18 19 19 17 24 21 20 27 29 28 29 32 27 25 24 21 16 13 9 10 6 5 5 4 2 3 3 4 7 10 9 9 10 13 14 15 15
17 21 22 23 21 20 20 20 20 17 19 18 17 16 14 11 11 11 12 14 13 16 25 25 28 24 24 25 19 18 14 12 8 7 7 8 6 3 1 1 1 1 3 6 7 11 15 16 14 15 17 15 18 20
19 20 22 21 20 20 19 21 22 24 24 22 22 23 21 22 21 17 14 12 15 15 16 16 18 19 17 14 12 10 11 17 10 5 5 2 1 3 4 2 4 5 5 7 7 8 8 10 11 13 14 18 18 21
21 21 21 20 20 20 19 21 21 24 23 24 24 24 25 21 23 23 22 18 14 16 14 13 13 12 9 7 6 5 5 4 5 3 1 2 5 8 10 9 7 6 7 9 11 11 11 12 14 15 17 20 22 23
23 21 20 20 19 19 19 20 22 23 22 28 27 26 24 25 23 23 25 23 14 8 9 9 9 7 6 6 5 3 2 2 2 3 5 4 6 5 6 8 12 15 15 16 16 14 15 15 17 17 19 20 22 27
18 18 21 20 19 19 21 24 26 23 23 25 26 25 23 20 20 21 22 17 15 16 13 11 10 9 9 8 7 5 5 7 8 9 9 10 11 12 12 13 15 16 16 16 19 18 19 19 20 23 24 25 26 27
20 21 17 18 18 19 17 14 15 17 17 16 20 20 20 17 15 15 13 14 13 12 13 13 11 11 11 10 10 10 11 12 13 14 15 14 14 15 17 18 18 17 17 19 22 22 22 24 25 27 29 29 30 32
21 17 15 19 22 20 19 18 16 14 12 14 14 15 15 15 15 13 12 13 13 14 13 12 12 12 12 12 12 13 14 15 16 16 17 19 21 23 24 25 27 27 23 22 25 29 29 29 30 32 33 34 35 36
16 13 13 15 17 17 19 18 19 17 14 12 12 15 13 13 14 14 14 16 19 19 18 18 19 18 17 18 17 18 20 21 23 25 25 27 27 26 29 33 35 34 38 38 38 40 41 42 45 46 48 49 50 49
13 14 14 12 12 14 17 19 18 18 15 18 16 14 12 7 15 12 14 21 22 20 19 19 19 22 24 25 25 27 29 31 32 33 35 37 38 37 36 39 41 42 44 45 45 46 47 49 50 49 50 51 52 52
12 11 13 9 12 17 16 18 20 19 18 17 17 16 12 10 12 18 22 21 21 21 22 23 25 26 27 27 29 29 29 31 33 35 38 41 42 43 43 45 46 44 45 45 44 46 47 48 49 50 51 52 54 55
11 15 11 17 15 16 15 18 18 19 20 19 19 19 16 15 19 21 21 23 24 25 27 27 28 32 34 34 35 36 35 37 38 40 42 44 46 47 47 48 49 49 49 50 49 50 50 51 53 54 55 56 57 58
18 12 16 16 17 16 16 18 20 20 22 22 20 20 20 20 20 22 24 27 30 31 33 36 36 36 37 36 36 37 34 30 30 29 30 31 32 33 34 34 34 35 35 36 38 39 38 39 41 42 43 45 46 48
19 23 21 19 18 18 17 18 21 23 25 24 23 22 22 21 21 27 32 35 37 39 38 36 33 30 28 27 26 26 25 25 26 26 26 26 26 27 28 27 27 26 25 25 26 26 26 27 28 30 31 34 36 38
14 14 14 16 17 19 20 20 21 22 24 22 24 27 28 29 32 36 39 41 41 36 31 31 31 29 26 24 24 25 25 23 22 21 22 24 23 24 23 24 24 24 24 25 24 25 25 27 28 29 30 32 33 33
12 14 14 15 17 20 21 22 23 21 26 24 27 30 31 31 36 39 41 40 34 29 27 26 27 26 25 24 23 22 22 21 20 21 21 22 23 23 24 25 26 26 26 26 26 26 26 26 27 27 28 29 29 28
14 15 15 16 16 17 21 23 24 24 27 25 30 31 33 35 37 39 41 39 31 26 27 28 29 27 25 23 23 22 21 22 23 22 22 23 25 26 25 25 26 27 28 28 27 26 26 25 25 25 25 26 26 25

GFSWCAN_500_spd_033.txt.gz
Wind_Speed
55 55 52 53 48 44 42 36 34 30 29 27 24 21 18 16 15 17 22 23 22 20 14 18 18 16 18 18 25 20 17 12 30 33 25 42 46 51 54 66 76 61 57 36 40 49 57 45 42 48 46 52 51 48
53 51 49 52 43 35 34 35 32 30 29 27 24 20 18 16 15 15 13 12 12 11 9 17 19 19 17 18 20 31 19 5 23 30 15 20 42 49 51 61 84 66 57 44 42 41 44 40 45 48 56 58 52 51
49 46 45 45 38 32 34 32 31 29 28 27 25 21 18 17 16 14 9 10 10 7 9 11 10 12 11 15 18 28 28 14 28 32 23 20 29 31 46 62 52 71 64 48 50 55 51 53 55 55 48 53 52 53
48 42 39 39 35 32 32 34 34 29 30 29 29 31 26 22 17 13 11 10 10 7 4 3 3 4 7 13 18 25 19 23 21 12 26 20 23 29 48 37 51 71 61 47 55 52 50 56 62 55 50 50 58 57
45 36 35 35 36 34 33 37 35 30 34 33 31 31 31 28 26 23 20 15 11 9 6 5 1 3 10 15 26 23 21 14 14 10 26 28 21 32 21 38 54 58 55 56 58 53 56 54 53 56 60 59 53 53
40 33 32 35 34 34 36 36 35 34 30 27 23 24 24 24 23 22 21 20 17 14 12 11 7 20 12 13 22 25 21 17 4 19 17 24 23 27 31 37 58 39 58 55 62 56 48 48 54 40 54 58 46 51
35 32 34 33 34 36 38 38 35 31 33 35 32 32 28 22 18 20 19 14 14 12 12 13 17 24 20 12 14 18 15 9 21 19 19 26 34 44 43 46 19 33 62 49 52 59 63 60 57 49 37 52 54 48
39 35 33 33 35 37 36 34 34 34 36 32 29 29 30 31 25 26 21 12 13 13 14 15 15 21 25 17 8 10 10 15 21 20 23 37 33 23 37 40 14 31 47 44 41 45 45 43 43 48 51 58 42 40
35 34 33 32 32 33 33 32 31 35 44 42 37 33 31 32 27 23 26 29 25 19 13 21 17 12 20 19 14 5 10 23 28 25 18 21 26 19 28 43 13 25 34 37 43 33 42 44 49 40 38 44 45 41
31 34 33 34 31 27 30 29 29 31 34 35 34 30 36 34 29 27 31 34 32 27 24 18 19 16 12 10 9 13 17 13 21 24 21 13 13 10 46 32 12 29 35 25 37 23 19 31 42 39 38 35 35 37
27 31 33 33 30 26 24 25 27 30 31 28 27 46 36 36 30 26 32 31 33 35 24 23 20 17 21 21 18 9 12 16 20 26 20 12 11 19 26 27 15 15 15 19 19 14 14 13 13 14 20 21 23 25
28 25 26 30 28 24 19 20 23 23 27 31 36 26 38 35 34 33 30 26 28 28 33 25 17 19 17 18 18 19 21 18 18 18 21 20 16 15 18 24 18 17 15 15 18 10 15 11 10 12 15 18 23 27
26 26 27 28 28 27 21 18 18 20 24 28 26 24 32 35 36 30 30 33 27 26 31 24 11 21 20 23 24 21 15 23 30 33 27 28 31 22 26 23 15 14 14 10 17 9 7 6 5 11 15 15 22 23
25 26 26 26 29 28 22 19 14 16 19 21 22 30 33 37 38 30 30 30 22 22 25 30 28 25 24 25 22 22 32 35 35 36 40 33 28 27 24 20 19 20 17 10 6 2 6 3 4 4 3 6 7 16
24 27 27 25 25 24 23 22 16 12 15 14 18 27 27 29 31 25 36 24 27 27 24 24 23 23 22 30 40 43 38 36 32 26 23 22 24 21 10 8 9 10 13 11 7 7 6 6 7 8 10 11 13 15
23 25 25 22 21 21 21 22 25 20 12 12 18 19 18 21 23 25 30 26 29 31 30 25 32 35 37 38 36 35 35 32 25 19 17 18 20 18 14 12 14 9 7 10 9 10 8 7 6 5 5 4 5 8
24 23 21 20 20 20 22 23 17 15 18 20 18 16 15 18 20 20 23 24 25 21 31 32 35 34 35 33 30 28 27 22 19 16 14 15 15 12 12 13 12 8 8 7 4 4 5 3 2 4 5 5 4 7
22 21 20 20 19 21 22 21 20 21 24 21 20 18 16 14 15 15 20 24 20 17 22 24 27 27 32 27 19 17 14 14 11 10 13 13 8 7 9 8 7 6 5 4 4 6 6 5 7 9 11 12 13 13
23 23 21 21 20 21 19 21 21 23 24 22 22 23 23 20 16 16 17 15 14 17 13 8 17 22 20 19 16 16 16 11 16 11 8 7 4 5 5 6 7 9 10 8 7 7 8 8 9 10 13 13 15 14
25 25 24 21 20 19 17 22 25 24 24 27 28 24 23 23 23 18 13 12 13 11 8 5 8 9 7 7 7 6 7 5 4 6 7 5 5 6 7 8 9 9 9 12 13 11 13 15 16 18 16 13 17 20
24 22 22 21 20 21 19 20 23 24 23 23 24 22 22 25 24 23 20 20 15 11 10 10 11 9 7 7 8 8 8 7 6 8 8 9 13 14 12 11 12 13 16 16 14 14 15 19 20 20 20 20 23 23
20 21 23 18 13 15 17 19 17 16 19 21 21 19 18 18 19 19 22 16 15 17 15 13 13 11 8 6 6 8 9 9 10 11 12 15 16 18 18 18 18 17 17 20 21 20 18 19 22 23 23 25 26 26
19 22 19 15 17 19 19 19 17 16 16 14 15 15 17 17 17 17 16 18 21 20 17 14 14 15 16 15 14 12 12 13 15 16 16 17 19 22 22 22 22 20 19 22 24 26 25 25 26 27 28 27 28 27
14 13 12 12 16 17 18 20 20 15 13 12 12 11 12 16 17 16 13 17 23 21 19 18 18 19 19 19 20 22 23 23 23 22 24 26 27 29 30 30 30 30 31 31 31 32 32 33 34 36 37 39 40 40
12 14 10 9 14 19 19 20 20 17 15 16 18 17 15 16 13 20 21 26 25 25 25 24 23 22 21 21 20 21 24 26 28 28 28 28 29 29 32 35 34 38 39 40 41 43 45 46 46 45 44 45 46 47
10 11 10 11 17 14 19 19 19 19 16 15 16 16 16 15 19 22 23 24 26 27 27 28 29 31 32 31 30 28 28 30 32 33 34 34 33 34 36 36 36 39 42 43 44 46 47 47 47 48 49 50 51 51
7 3 11 12 12 13 18 20 21 21 19 18 18 19 19 19 20 22 24 27 29 31 33 33 33 34 37 37 37 36 34 35 36 37 37 36 35 34 35 35 34 35 36 37 39 42 43 43 44 45 46 47 48 49
22 16 13 12 13 15 20 21 20 22 24 23 23 24 24 23 23 24 27 32 34 35 35 35 30 28 28 26 26 24 22 23 23 24 24 24 25 26 26 27 26 27 28 28 29 29 31 32 33 34 34 35 35 36
13 16 16 18 20 20 19 20 21 22 22 23 25 26 27 26 26 29 31 33 36 34 28 26 26 28 27 26 25 24 22 24 23 22 21 22 23 24 25 26 27 27 28 29 29 28 29 29 28 28 28 28 29 30
12 14 15 18 20 19 19 19 20 23 25 22 25 27 27 26 29 31 34 36 36 28 24 26 28 29 26 25 25 24 22 22 21 20 21 20 21 22 22 23 24 25 26 27 29 30 31 31 31 31 30 30 30 29
15 15 15 14 14 16 18 20 23 23 24 22 26 30 31 32 34 35 36 38 38 32 24 24 26 29 29 27 25 24 23 23 22 22 22 21 22 22 24 25 26 27 28 29 30 31 31 31 31 30 29 28 27 26
11 12 14 16 17 19 20 22 23 25 25 25 28 31 32 33 33 35 36 36 38 35 29 25 25 29 29 29 27 25 24 24 23 23 23 24 24 24 25 27 28 29 30 30 30 30 30 30 29 28 26 25 23 22
12 13 15 18 19 19 20 20 22 24 25 26 29 31 33 35 36 35 37 37 38 38 35 30 27 28 29 29 28 24 23 24 25 26 27 27 27 28 27 27 27 28 29 30 30 30 29 28 27 26 24 22 21 20

GFSWCAN_500_spd_036.txt.gz
Wind_Speed
56 50 41 39 36 37 41 44 38 39 35 36 36 32 26 22 21 21 22 17 16 15 13 18 20 18 17 18 20 21 18 18 17 13 26 20 32 40 62 63 78 71 70 73 59 58 58 70 75 57 48 53 51 54
48 42 39 36 39 42 42 43 41 41 43 39 37 33 31 28 24 20 19 15 15 11 8 14 16 16 18 20 16 17 20 23 13 21 27 20 20 32 40 61 57 58 73 77 57 40 62 64 72 61 60 52 53 50
42 37 37 39 42 44 48 46 42 38 35 35 37 37 35 31 26 21 17 16 14 11 11 12 11 10 10 14 14 16 23 17 19 20 30 28 21 17 30 48 55 37 70 72 51 41 42 65 55 53 59 59 60 55
38 38 38 41 45 46 44 40 37 36 35 33 31 28 31 32 29 27 26 23 19 13 12 8 5 8 7 9 9 14 22 12 18 21 32 29 14 13 15 38 48 57 34 69 53 42 46 65 47 41 49 52 57 65
37 33 36 39 41 42 37 34 34 33 33 31 30 28 26 23 27 29 29 28 25 20 14 12 9 8 6 6 6 14 18 13 14 22 32 22 1 10 17 19 35 59 42 48 66 42 47 45 51 47 51 52 54 57
38 29 32 35 38 39 34 37 32 36 37 36 35 33 31 31 26 19 20 21 21 21 20 14 16 14 9 7 6 5 18 16 11 16 13 8 11 15 19 18 19 45 49 30 62 57 35 35 50 53 55 53 52 51
31 34 29 28 32 33 31 30 34 39 40 37 38 31 28 28 28 29 22 17 18 19 21 21 18 8 3 1 3 5 2 1 9 14 15 11 6 6 19 12 17 35 43 37 54 46 52 51 46 51 48 52 51 51
28 29 32 28 28 29 28 29 33 39 53 47 34 34 33 36 32 28 25 24 23 21 22 22 22 20 14 7 3 6 7 19 19 14 10 5 9 6 6 13 22 36 36 46 43 42 51 43 43 45 48 53 57 57
27 28 30 32 27 27 26 26 28 35 42 45 34 33 32 35 35 36 28 27 23 25 25 20 18 15 16 17 17 21 22 23 21 14 6 9 5 6 7 18 18 32 37 47 52 49 50 52 51 50 51 52 54 54
24 24 28 32 28 24 22 22 25 30 34 40 31 28 28 39 36 38 33 37 33 28 26 26 18 20 18 22 18 24 26 25 18 19 16 8 7 5 6 14 22 25 18 32 47 48 47 52 52 54 57 54 55 32
24 26 26 28 29 26 24 19 22 26 29 29 32 30 23 33 49 45 41 37 36 30 24 18 18 22 19 19 18 26 23 21 20 15 11 6 3 6 9 15 22 14 22 29 41 44 35 36 38 41 38 38 31 30
24 26 27 27 27 24 21 17 21 25 24 28 30 20 28 44 49 43 39 30 33 18 22 23 24 23 25 23 24 23 21 22 21 12 13 18 21 10 7 12 5 14 22 24 33 41 33 28 16 12 18 18 17 25
24 27 26 24 25 24 24 18 15 19 21 27 24 16 31 41 43 34 30 26 26 25 23 23 22 21 20 22 22 27 35 33 28 32 36 32 28 24 20 16 18 18 21 23 18 25 23 22 17 14 11 13 14 16
23 24 23 22 23 23 22 20 17 16 18 22 22 26 42 44 35 28 31 23 21 21 17 17 16 18 24 33 36 38 37 40 41 35 30 28 31 25 24 30 28 30 27 25 17 16 18 14 13 10 12 14 18 17
24 22 20 19 23 23 21 16 16 17 16 16 23 31 35 35 28 33 32 24 22 21 15 16 21 28 38 39 37 36 39 36 34 36 27 20 16 11 10 17 16 18 18 14 12 9 10 10 9 6 6 9 12 12
23 21 20 18 17 20 18 21 25 20 12 12 22 24 23 23 23 25 31 34 30 28 29 35 37 34 35 34 33 31 28 26 23 21 21 22 25 19 18 17 18 9 10 11 13 12 10 7 5 6 11 12 12 12
22 22 22 21 21 21 24 22 16 12 17 19 18 18 19 20 23 21 25 33 30 26 23 26 30 32 30 29 30 28 27 23 20 19 14 15 16 17 17 17 15 13 12 10 9 7 7 6 6 4 2 3 5 5
23 22 22 23 22 22 26 20 18 20 25 24 20 18 18 17 18 18 23 20 19 20 19 20 20 21 27 29 26 21 20 20 20 20 17 12 12 12 13 10 11 10 8 8 6 1 4 4 5 6 7 9 10 10
22 21 21 23 23 27 23 23 24 28 31 31 31 26 22 17 17 20 15 12 15 17 20 11 8 16 19 17 13 12 10 9 7 5 3 3 6 6 7 7 7 7 7 9 11 10 9 7 6 8 9 14 16 14
15 17 20 22 22 22 21 23 21 23 24 25 26 25 25 25 25 22 22 21 22 19 15 12 12 14 12 9 7 6 6 6 7 8 10 10 11 11 12 12 11 9 8 8 10 14 17 17 17 18 18 17 18 18
18 16 15 20 18 18 19 17 18 20 21 20 21 21 20 22 21 20 20 23 20 15 13 14 15 15 14 12 10 8 7 8 10 12 14 16 17 18 16 15 15 17 14 10 11 15 19 20 20 20 20 21 21 21
15 15 18 18 16 18 18 16 14 11 11 13 16 18 18 18 17 15 15 19 19 20 19 17 16 16 16 16 16 17 16 14 12 12 12 14 15 17 17 16 17 19 22 22 21 20 19 20 21 21 23 24 25 26
12 13 13 15 18 19 17 16 14 14 19 13 17 11 11 15 12 12 13 17 20 21 18 16 15 15 16 18 18 19 18 21 23 23 20 19 20 20 22 23 23 23 25 26 27 27 27 26 28 31 31 31 32 31
14 14 11 12 18 16 15 15 16 15 15 17 17 16 11 15 16 19 19 20 21 22 23 23 23 23 19 19 21 24 24 23 23 26 28 29 27 26 28 30 32 33 31 32 33 33 34 35 35 36 38 41 43 44
15 14 11 13 12 14 15 18 21 20 19 18 19 18 19 18 19 20 22 23 25 27 28 29 29 28 28 27 26 28 30 30 29 29 31 32 33 34 34 35 37 38 39 40 41 41 42 42 43 44 45 45 46 47
8 9 10 12 14 16 16 18 20 20 21 21 21 22 23 22 22 23 25 27 30 32 33 32 29 28 24 21 22 23 25 25 23 23 24 27 29 31 31 32 34 35 36 36 36 36 37 38 38 37 38 39 41 43
6 10 9 10 11 15 19 21 23 23 22 22 25 26 28 28 28 30 32 32 33 35 34 26 23 23 24 23 20 21 22 20 18 17 17 19 19 19 19 20 21 21 21 23 24 24 26 27 27 28 29 30 31 32
9 9 10 11 12 13 15 18 18 19 20 19 23 27 28 30 30 32 33 32 33 34 33 27 25 24 25 26 25 25 24 23 22 20 17 16 16 17 17 17 17 18 17 18 20 22 24 25 27 28 29 30 31 32
7 7 10 12 14 16 17 19 21 23 24 23 24 29 29 30 32 32 33 34 33 34 34 29 27 26 27 26 26 27 26 23 24 24 23 21 21 22 22 22 22 24 26 25 24 26 26 27 27 28 29 30 30 30
7 9 12 14 16 19 20 20 20 22 23 23 24 26 28 29 31 33 34 36 36 35 34 31 27 26 28 28 26 25 26 24 23 23 23 23 23 24 25 25 25 26 27 27 27 27 27 28 30 31 31 30 29 28
12 13 13 15 18 18 19 19 18 18 21 22 25 28 30 32 33 33 33 36 35 34 34 34 31 28 28 29 29 27 26 25 26 25 24 24 24 24 25 25 25 25 25 25 26 26 27 28 29 29 28 27 26 25
14 15 18 17 16 19 21 21 20 21 22 25 25 29 32 34 33 33 33 35 36 36 35 35 34 31 31 29 28 28 29 29 28 28 27 27 26 25 25 25 25 25 25 25 25 25 26 26 26 25 25 24 23 22
17 17 18 18 19 20 22 23 22 22 23 27 27 29 33 35 36 36 35 35 35 36 36 36 35 34 34 32 30 29 29 29 30 29 29 28 28 28 27 26 26 26 26 26 27 26 26 25 24 24 24 23 23 21

GFSWCAN_500_spd_042.txt.gz
Wind_Speed
40 37 35 30 30 35 42 42 46 51 54 61 47 46 43 44 44 37 35 36 33 28 25 18 13 10 8 10 11 11 12 12 13 17 21 23 23 26 31 35 47 64 84 100 96 101 102 94 88 86 83 77 69 67
37 35 34 34 30 32 37 43 48 49 54 59 56 48 49 43 40 38 35 33 27 29 24 20 13 7 7 8 8 10 8 9 8 10 13 18 19 17 14 20 30 44 65 80 100 105 95 95 85 84 84 80 77 71
32 34 33 33 35 33 35 40 45 48 51 56 57 50 40 35 33 33 30 27 27 23 21 17 11 8 5 2 4 8 7 6 6 6 9 14 16 15 17 13 20 32 44 60 75 98 97 98 83 77 73 72 74 69
31 32 33 32 35 39 39 39 41 49 50 55 54 42 36 36 31 31 29 26 26 25 25 25 25 15 10 5 3 2 1 3 5 12 11 19 14 17 15 16 20 27 33 40 50 70 81 86 87 73 59 48 38 38
31 31 30 32 36 38 39 39 43 42 45 49 45 33 30 32 32 28 27 26 25 26 26 24 25 23 20 17 11 7 4 1 3 4 6 7 9 8 15 10 7 24 32 46 42 36 52 75 87 70 50 52 42 44
31 32 32 33 33 36 34 30 30 39 43 43 43 32 28 27 27 28 20 22 23 24 24 24 22 24 24 18 16 16 13 6 5 11 12 16 9 7 7 8 14 32 35 32 55 45 44 49 53 78 58 54 51 49
32 31 31 33 35 30 26 26 30 34 38 40 38 28 30 28 26 25 23 23 25 29 31 29 25 23 20 16 13 12 8 6 9 13 13 13 13 18 18 12 8 20 19 27 47 49 44 49 57 63 69 45 50 54
31 32 33 34 31 25 20 25 28 31 34 35 31 27 27 33 27 31 33 36 28 30 28 26 24 25 23 19 18 18 16 15 15 16 13 13 11 14 14 11 5 1 20 32 41 52 46 64 56 54 59 52 49 60
32 33 33 32 26 22 18 24 24 29 30 31 25 23 22 23 30 29 32 31 33 31 24 22 22 18 16 15 15 15 14 14 14 16 19 19 22 20 17 9 3 8 15 16 24 44 53 65 59 54 62 61 62 58
32 30 28 27 25 22 19 22 24 27 30 27 24 17 17 20 26 25 31 31 27 26 24 20 16 15 15 12 12 13 15 17 18 20 20 20 19 8 11 12 6 17 30 14 17 41 51 58 58 68 34 27 36 53
27 24 23 24 24 23 17 20 22 23 25 24 21 14 16 21 24 27 27 23 24 23 20 16 15 14 13 16 16 18 28 36 26 28 32 27 21 5 9 12 15 27 29 23 14 24 38 45 43 51 33 35 39 57
26 24 23 23 23 23 17 15 20 21 23 28 20 13 19 25 27 26 28 29 22 22 20 19 19 19 21 35 40 36 40 36 41 41 40 41 35 18 11 14 13 23 15 11 13 27 37 14 34 47 42 19 18 23
26 26 25 23 21 19 15 10 17 19 21 23 16 22 32 34 36 30 28 27 24 27 21 19 34 36 36 38 42 40 37 40 37 37 39 35 42 30 25 25 28 30 21 17 10 18 29 38 32 38 45 34 26 21
28 27 26 25 23 19 18 16 15 14 21 18 11 26 37 37 35 35 29 22 23 25 28 25 26 30 31 32 35 36 34 36 39 35 38 35 32 35 32 26 26 25 19 25 21 12 14 15 23 25 17 14 21 26
26 27 29 31 25 22 20 14 11 16 19 15 12 26 30 33 33 34 36 27 20 23 21 19 19 21 20 26 29 35 36 36 34 26 27 30 27 26 27 25 25 27 31 22 14 14 14 15 13 16 21 21 20 19
21 26 28 28 31 30 27 32 27 24 17 14 16 22 26 25 23 23 26 31 31 33 25 14 11 11 16 21 23 30 31 31 25 22 27 28 29 31 32 30 29 23 19 25 33 36 28 26 22 18 22 20 18 15
20 22 23 26 28 27 31 29 22 10 12 13 17 21 24 22 23 23 23 25 28 22 19 23 15 15 12 16 20 25 24 18 15 18 20 20 20 20 21 21 20 22 22 21 19 16 18 24 29 25 22 19 22 24
16 18 21 23 22 24 26 23 22 22 22 21 17 19 21 24 24 21 23 24 25 23 23 19 18 16 15 13 11 11 11 12 12 12 12 14 14 14 14 13 13 12 12 12 12 11 12 9 8 5 3 1 4 7
14 17 20 25 22 16 18 17 18 18 17 17 17 18 19 19 21 23 23 22 22 25 23 20 17 14 12 9 9 10 12 11 11 11 11 12 11 9 10 10 10 9 6 5 5 4 4 3 2 3 4 7 10 12
16 17 17 23 21 20 20 17 18 16 16 18 17 17 17 19 19 19 20 21 20 19 19 18 17 16 15 14 13 12 12 13 14 14 13 12 12 12 12 12 13 13 14 14 9 7 7 8 9 11 12 13 13 15
14 17 17 19 19 21 19 18 17 17 13 19 20 19 16 25 23 22 22 23 25 25 23 21 20 19 18 18 18 18 17 16 16 16 15 16 17 17 17 18 18 18 18 18 18 17 18 18 17 18 19 20 22 24
14 15 14 17 19 20 20 19 20 20 19 20 19 21 21 21 21 22 22 22 22 22 23 23 23 24 25 25 25 23 22 21 21 22 22 22 22 23 23 24 24 24 24 23 23 24 25 26 26 25 26 27 28 30
12 12 13 16 18 17 18 18 18 19 20 21 23 25 25 25 26 27 26 25 24 25 26 25 26 26 24 22 20 20 20 20 22 24 25 26 27 28 29 30 30 29 29 29 30 30 31 32 33 34 34 35 35 35
7 9 10 13 13 14 14 15 16 17 18 20 23 25 26 27 29 30 29 28 26 26 27 28 29 28 26 24 22 21 22 23 23 22 22 23 24 24 25 25 26 27 29 31 32 33 34 35 36 38 39 41 41 42
4 7 8 10 11 11 13 15 16 18 19 20 21 24 26 28 30 31 31 30 29 28 28 28 28 27 26 24 23 24 25 23 23 24 24 23 23 23 24 24 26 26 25 25 24 24 23 24 24 26 27 28 30 30
11 10 10 11 12 13 15 16 17 19 19 20 22 24 26 28 29 31 32 32 32 31 30 28 28 28 26 25 23 23 23 24 23 21 21 22 23 24 25 25 25 24 24 25 25 25 25 25 26 28 30 30 31 32
9 10 11 13 14 16 17 19 19 19 19 21 24 25 27 31 34 35 34 31 31 31 29 30 29 27 26 25 25 24 23 23 22 22 22 22 22 22 22 23 24 24 25 27 28 29 30 31 32 33 32 32 32 32
11 12 13 15 16 16 18 19 19 18 19 21 24 27 28 31 34 35 33 31 31 30 29 30 30 30 29 28 28 27 25 24 24 24 23 23 24 23 23 22 22 23 24 25 27 29 30 31 32 33 34 34 34 33
9 11 14 16 17 17 18 20 21 20 20 23 26 28 29 28 31 34 33 31 31 31 30 31 32 32 31 32 33 33 33 32 31 31 31 30 29 28 27 27 27 26 26 26 26 26 26 27 27 28 29 30 30 31
14 15 17 18 18 19 20 21 22 21 21 23 26 28 27 27 31 33 32 31 31 32 34 36 36 36 35 36 37 38 38 37 36 34 33 32 32 31 29 28 27 26 26 26 25 25 25 25 26 27 28 28 28 29
13 14 15 17 21 19 18 18 18 19 21 23 25 27 28 30 33 34 32 31 32 34 36 38 40 41 41 43 43 43 42 40 37 34 32 30 28 26 25 24 23 23 23 23 24 25 26 26 25 25 25 26 26 27
14 15 16 16 17 18 18 17 17 18 20 24 27 29 30 31 34 35 34 32 34 36 38 41 44 46 47 46 46 44 40 35 32 29 27 26 24 22 21 21 21 21 21 22 22 22 23 23 23 24 25 25 25 25
14 15 17 19 20 20 19 18 17 18 21 26 29 31 32 33 36 37 34 33 35 37 41 45 48 49 49 45 42 37 33 29 27 25 24 23 22 22 21 20 20 20 21 21 22 23 24 25 25 25 25 24 24 24

GFSWCAN_500_spd_048.txt.gz
Wind_Speed
43 40 37 36 37 36 38 37 33 32 40 45 48 50 49 44 42 35 33 34 38 35 26 24 21 17 13 7 6 7 5 4 5 6 9 15 14 13 25 42 60 80 87 85 86 86 87 82 82 82 77 78 71 70
41 37 38 37 35 34 36 33 32 35 40 44 46 44 43 38 33 27 30 35 34 34 31 25 21 18 14 10 5 4 3 2 1 4 7 11 15 18 22 28 42 59 77 90 90 91 87 86 87 84 81 81 73 71
38 37 36 36 34 32 31 28 28 34 39 42 41 38 37 32 26 23 29 34 35 35 34 31 29 25 19 16 15 13 10 6 6 9 6 0 6 10 14 21 32 45 56 79 88 91 92 89 85 86 84 78 78 75
37 35 35 35 31 30 27 23 30 33 38 40 38 35 35 28 20 21 26 31 35 33 35 35 31 24 22 20 17 14 14 11 10 9 8 7 4 2 5 11 17 28 42 56 73 83 90 94 91 91 86 85 79 76
35 33 32 32 32 26 23 29 31 34 37 37 34 34 24 23 19 19 23 31 36 36 35 34 34 33 30 29 26 22 18 19 18 19 14 15 12 5 6 3 5 15 24 40 52 59 73 81 90 93 88 85 81 80
34 30 26 28 24 23 27 29 30 33 36 34 30 28 29 24 22 23 24 28 31 32 34 34 34 31 32 31 29 27 27 27 27 25 24 19 20 22 18 3 14 14 9 10 18 41 59 72 80 87 89 88 83 80
32 30 24 23 24 20 23 28 31 34 35 36 32 28 26 26 22 21 23 26 24 27 29 31 32 33 35 37 39 40 38 35 37 32 28 24 17 21 17 9 10 21 20 20 18 20 34 50 61 76 84 82 83 80
31 30 28 26 23 22 22 23 30 32 36 33 32 25 21 22 18 19 21 23 24 25 27 28 28 31 31 30 42 54 56 54 52 48 47 40 29 26 22 18 9 17 18 18 19 19 28 33 57 64 73 77 76 73
30 33 31 29 26 22 24 19 25 29 33 33 34 24 21 19 20 19 21 20 23 27 27 29 26 31 40 42 46 51 50 53 53 50 51 46 33 27 27 23 19 20 17 19 22 23 26 41 47 60 61 62 67 68
30 32 34 32 28 25 19 13 19 25 30 32 34 21 16 16 17 17 16 21 26 30 28 28 30 29 32 35 37 42 43 41 44 47 50 50 32 23 20 23 24 16 18 9 6 12 18 28 31 48 44 48 49 46
27 29 34 38 31 23 18 12 17 24 26 30 28 14 16 15 12 16 20 23 27 26 26 25 26 27 26 28 31 32 34 36 39 43 48 47 29 19 17 15 19 21 19 16 15 17 20 26 30 37 39 40 37 43
24 26 30 36 41 36 23 17 18 20 24 30 30 19 15 17 20 22 22 24 24 24 26 25 24 23 28 25 27 29 28 32 33 30 36 37 43 28 25 24 14 18 14 20 20 29 31 32 29 27 37 20 51 42
22 23 27 30 32 27 16 11 12 18 23 24 16 19 21 24 18 15 14 21 20 19 24 25 21 19 20 22 27 33 33 33 29 32 33 31 32 39 33 19 20 21 14 11 20 14 19 20 32 17 28 25 40 35
18 20 25 28 25 26 8 2 9 20 28 21 12 11 20 23 21 18 15 13 13 16 22 24 22 16 22 23 23 25 27 30 35 38 38 35 29 29 32 33 25 14 19 16 21 17 22 15 20 24 28 20 21 23
15 19 24 26 24 21 25 25 28 29 21 14 9 15 24 22 23 22 20 16 11 9 12 14 18 23 25 24 22 25 26 26 27 27 28 30 34 31 27 25 26 25 22 22 23 10 10 9 20 23 13 15 21 23
16 19 22 24 24 20 18 21 24 22 17 20 23 22 22 25 24 22 19 18 19 19 18 17 16 17 17 19 22 22 22 23 24 23 21 21 22 25 30 26 26 19 21 23 20 17 22 23 25 28 29 26 22 23
16 18 21 22 21 20 18 18 19 15 15 19 19 19 20 22 22 20 19 16 14 16 17 14 14 15 17 18 20 22 22 21 21 22 23 22 18 18 16 19 22 22 22 12 13 23 28 37 36 27 27 26 26 27
14 17 17 18 18 18 17 17 18 16 18 19 19 19 20 21 23 22 21 20 20 20 18 17 18 19 19 19 19 20 22 23 22 21 21 21 20 21 20 17 12 10 12 14 12 6 16 22 18 20 18 23 18 20
14 16 15 14 15 15 17 18 19 19 21 22 22 23 24 24 25 26 26 25 23 21 22 22 19 17 17 18 19 20 21 22 23 23 22 22 22 20 19 18 16 14 12 9 7 9 8 5 3 4 2 12 11 7
12 12 11 11 11 13 15 16 17 19 21 22 23 23 24 25 26 27 28 29 27 23 19 18 19 20 21 22 22 21 20 21 21 22 22 22 22 21 21 20 19 18 17 15 14 13 12 12 11 10 12 12 13 12
10 9 7 8 9 11 14 15 17 18 19 19 20 22 24 26 28 30 31 31 29 25 22 20 19 18 18 19 21 22 23 22 21 23 24 24 22 21 21 22 22 22 21 20 19 19 18 19 19 18 18 19 20 20
8 7 5 7 8 11 14 16 17 19 20 20 20 23 25 26 28 30 31 31 30 28 25 24 24 24 25 24 22 22 21 21 22 22 22 22 22 22 21 20 20 20 20 21 22 22 23 25 25 25 25 25 25 25
5 6 6 8 10 13 15 18 20 21 21 20 20 22 24 26 27 29 30 31 31 29 26 25 25 27 27 27 26 25 24 24 23 22 23 23 22 21 21 21 20 19 18 18 19 20 20 20 21 23 25 28 29 30
4 7 7 9 12 15 18 19 19 20 20 20 20 22 25 27 27 28 29 31 33 30 27 26 27 27 27 28 29 30 29 29 28 27 25 23 22 22 21 21 21 20 19 19 19 20 21 22 22 21 20 20 20 21
8 8 10 13 15 16 18 18 19 20 21 21 21 22 25 29 28 26 28 32 33 32 30 29 28 28 29 30 31 31 32 32 32 32 31 30 28 26 24 23 22 22 22 21 20 20 20 20 22 23 23 22 22 22
9 10 11 14 15 18 19 19 19 21 22 22 22 23 26 29 28 28 31 34 35 35 34 32 30 31 31 33 36 37 38 37 36 35 33 32 32 31 30 29 28 26 25 24 23 22 22 21 21 22 22 23 25 26
11 13 14 16 17 17 18 19 20 21 22 22 22 24 28 29 29 30 32 34 36 34 34 33 33 33 35 37 40 42 42 39 36 34 32 31 30 29 29 29 29 29 29 28 28 27 26 24 24 23 23 22 23 23
11 14 15 16 16 18 19 20 21 21 22 23 24 27 30 29 30 32 34 37 38 37 38 35 36 36 38 43 43 39 36 34 31 29 27 26 23 22 21 22 23 23 24 24 25 25 25 25 25 24 23 24 24 23
12 14 15 17 18 21 22 22 23 23 23 23 25 28 30 28 31 33 35 35 35 40 38 38 38 40 43 40 36 36 36 35 34 32 30 28 26 24 21 19 17 17 17 17 18 19 20 20 20 21 21 21 21 22
13 14 17 18 20 21 23 23 24 24 22 22 24 27 28 29 32 34 35 36 37 37 37 39 41 43 40 37 33 33 35 36 35 33 31 28 26 23 21 19 18 16 16 15 15 15 16 17 17 18 18 18 18 19
14 16 18 19 21 22 23 23 23 22 21 22 24 26 28 29 32 33 33 35 35 36 38 41 42 39 36 32 33 32 36 37 36 35 33 29 26 23 21 19 19 18 18 18 17 16 15 15 15 15 16 17 17 18
15 16 19 21 21 21 21 21 21 20 21 23 25 27 28 30 34 36 37 37 37 38 41 42 39 35 32 35 34 33 35 37 40 40 37 33 28 23 21 20 19 18 17 17 17 17 18 18 19 20 20 21 22 22
17 18 18 18 18 18 18 18 18 18 20 23 25 27 29 32 35 38 38 38 39 41 42 38 34 32 35 34 35 35 34 36 40 43 38 33 28 24 22 19 17 17 18 19 20 21 22 22 22 22 22 21 19 18